Hyannis, MA

1:23 PM EDT on August 20, 2017 (GMT -0400)
Barnstable Municipal-Boardman-Polando Field

Weather History for KHYA - April, 2014

Change the Weather History Date:

Wednesday, April 30, 2014

  Actual Average Record
Temperature  
Mean Temperature 44 °F -  
Max Temperature 46 °F 55 °F 80 °F (1942)
Min Temperature 41 °F 41 °F 28 °F (1975)
Degree Days  
Heating Degree Days 22    
Moisture  
Dew Point 38 °F    
Average Humidity 81    
Maximum Humidity 93    
Minimum Humidity 73    
Precipitation  
Precipitation 0.11 in - - ()
Sea Level Pressure  
Sea Level Pressure 30.41 in    
Wind  
Wind Speed 8 mph (East)    
Max Wind Speed 13 mph    
Max Gust Speed 23 mph    
Visibility 8 miles    
Events Rain    
Averages and records for this station are not official NWS values.
T = Trace of Precipitation, MM = Missing Value Source: NWS Daily Summary

Daily Weather History Graph

Daily Weather History Graph

Search for Another Location

Airport or City:

Trip Planner

Search our weather history database for the weather conditions in past years. The results will help you decide how hot, cold, wet, or windy it might be!

Date:

Astronomy

Apr. 30, 2014 Rise Set
Actual Time 5:39 AM EDT 7:38 PM EDT
Civil Twilight 5:09 AM EDT 8:08 PM EDT
Nautical Twilight 4:32 AM EDT 8:45 PM EDT
Astronomical Twilight 3:52 AM EDT 9:25 PM EDT
Moon 6:37 AM EDT (4/30) 9:14 PM EDT (4/30)
Length of Visible Light 14h 59m
Length of Day
13h 59m
New Moon, 2% of the Moon is Illuminated
Apr 30
New Moon
May 6
First Quarter
May 14
Full
May 21
Last Quarter
May 28
New

Hourly Weather History & Observations

Time (EDT) Temp. Windchill Dew Point Humidity Pressure Visibility Wind Dir Wind Speed Gust Speed Precip Events Conditions
12:56 AM 42.1 °F 38.4 °F 34.0 °F 73% 30.50 in 10.0 mi East 5.8 mph - N/A   Overcast
1:56 AM 42.1 °F 38.4 °F 34.0 °F 73% 30.49 in 10.0 mi ENE 5.8 mph - N/A   Overcast
2:56 AM 42.1 °F 38.4 °F 35.1 °F 76% 30.48 in 10.0 mi NE 5.8 mph - N/A   Overcast
3:56 AM 41.0 °F 36.4 °F 37.0 °F 86% 30.48 in 10.0 mi ENE 6.9 mph - 0.01 in   Overcast
4:56 AM 42.1 °F 38.4 °F 37.0 °F 82% 30.49 in 10.0 mi NE 5.8 mph - N/A   Overcast
5:56 AM 42.1 °F 38.4 °F 37.0 °F 82% 30.50 in 10.0 mi NE 5.8 mph - 0.00 in   Overcast
6:56 AM 43.0 °F 38.8 °F 37.0 °F 80% 30.50 in 10.0 mi ENE 6.9 mph - N/A   Overcast
7:56 AM 43.0 °F 37.7 °F 37.0 °F 80% 30.50 in 9.0 mi ENE 9.2 mph - 0.00 in Rain Light Rain
8:56 AM 43.0 °F 37.7 °F 37.0 °F 80% 30.48 in 10.0 mi East 9.2 mph - 0.00 in   Overcast
9:56 AM 43.0 °F 38.8 °F 39.0 °F 86% 30.47 in 7.0 mi ENE 6.9 mph - 0.01 in Rain Light Rain
10:56 AM 44.1 °F 39.5 °F 39.0 °F 82% 30.48 in 10.0 mi East 8.1 mph - 0.02 in   Overcast
11:56 AM 46.0 °F 41.4 °F 39.0 °F 76% 30.45 in 10.0 mi East 9.2 mph - N/A   Overcast
12:17 PM 46.0 °F 40.2 °F 39.0 °F 76% 30.44 in 10.0 mi East 12.7 mph 19.6 mph N/A   Mostly Cloudy
12:47 PM 46.9 °F - 39.0 °F 74% 30.44 in 10.0 mi East 10.4 mph 17.3 mph N/A   Overcast
12:56 PM 46.0 °F 40.6 °F 37.9 °F 73% 30.45 in 10.0 mi ESE 11.5 mph 20.7 mph N/A   Overcast
1:11 PM 46.0 °F 41.0 °F 37.9 °F 73% 30.44 in 10.0 mi ESE 10.4 mph 20.7 mph N/A   Overcast
1:56 PM 46.9 °F - 39.0 °F 74% 30.43 in 10.0 mi ESE 10.4 mph - N/A   Overcast
2:25 PM 45.0 °F 39.7 °F 37.9 °F 76% 30.42 in 10.0 mi East 10.4 mph 20.7 mph N/A   Overcast
2:41 PM 45.0 °F 39.7 °F 37.9 °F 76% 30.41 in 10.0 mi ESE 10.4 mph - N/A   Overcast
2:56 PM 45.0 °F 39.3 °F 37.9 °F 76% 30.41 in 10.0 mi ESE 11.5 mph 18.4 mph N/A   Overcast
3:56 PM 46.0 °F 41.0 °F 37.9 °F 73% 30.38 in 10.0 mi East 10.4 mph - 0.00 in Rain Light Rain
4:56 PM 45.0 °F 38.9 °F 37.9 °F 76% 30.35 in 10.0 mi East 12.7 mph 23.0 mph 0.00 in   Overcast
5:56 PM 43.0 °F 36.8 °F 39.9 °F 89% 30.34 in 4.0 mi East 11.5 mph 18.4 mph 0.01 in Rain Light Rain
6:56 PM 43.0 °F 37.2 °F 39.9 °F 89% 30.32 in 4.0 mi East 10.4 mph 18.4 mph 0.02 in Rain Light Rain
7:06 PM 43.0 °F 37.2 °F 41.0 °F 93% 30.32 in 5.0 mi East 10.4 mph - 0.00 in Rain Light Rain
7:42 PM 43.0 °F 37.7 °F 41.0 °F 93% 30.32 in 6.0 mi East 9.2 mph - 0.00 in Rain Light Rain
7:56 PM 43.0 °F 38.2 °F 41.0 °F 93% 30.32 in 5.0 mi ESE 8.1 mph - 0.01 in Rain Light Rain
8:27 PM 44.1 °F 40.1 °F 41.0 °F 89% 30.31 in 4.0 mi East 6.9 mph - 0.02 in Rain Light Rain
8:37 PM 44.1 °F 39.0 °F 41.0 °F 89% 30.31 in 5.0 mi East 9.2 mph 17.3 mph 0.03 in Rain Light Rain
8:56 PM 44.1 °F 39.5 °F 41.0 °F 89% 30.30 in 6.0 mi East 8.1 mph - 0.03 in Rain Light Rain
9:16 PM 44.1 °F 38.6 °F 41.0 °F 89% 30.29 in 6.0 mi ESE 10.4 mph 23.0 mph 0.00 in Rain Light Rain